This is the latest recevied weather packets stored in our database for station/object IN3XSV. If no packets are shown the sender has not sent any weather packets the latest 10 day(s).
| Time | Temp. | Humidity | Pressure | Rain* | Wind** | Luminosity | Snow |
|---|---|---|---|---|---|---|---|
| 1777701229 | 9.44° C | 74% | 1020.6 hPa | 0 mm | - | - | - |
| 1777700929 | 8.89° C | 74% | 1020.6 hPa | 0 mm | - | - | - |
| 1777700629 | -30° C | 74% | 1020.7 hPa | 0 mm | - | - | - |
| 1777700329 | 8.89° C | 74% | 1020.7 hPa | 0 mm | - | - | - |
| 1777700029 | 8.33° C | 74% | 1020.8 hPa | 0 mm | - | - | - |
| 1777699729 | 8.33° C | 74% | 1020.7 hPa | 0 mm | - | - | - |
| 1777699429 | 8.33° C | 74% | 1020.8 hPa | 0 mm | - | - | - |
| 1777699129 | 7.78° C | 74% | 1020.7 hPa | 0 mm | - | - | - |
| 1777698829 | 7.78° C | 74% | 1020.8 hPa | 0 mm | - | - | - |
| 1777698529 | 7.78° C | 74% | 1020.7 hPa | 0 mm | - | - | - |
| 1777698229 | 7.22° C | 74% | 1020.7 hPa | 0 mm | - | - | - |
| 1777697929 | 6.67° C | 74% | 1020.7 hPa | 0 mm | - | - | - |
| 1777697629 | 6.67° C | 74% | 1020.6 hPa | 0 mm | - | - | - |
| 1777697329 | 6.11° C | 74% | 1020.6 hPa | 0 mm | - | - | - |
| 1777697029 | 6.11° C | 74% | 1020.6 hPa | 0 mm | - | - | - |
| 1777696729 | 5.56° C | 74% | 1020.6 hPa | 0 mm | - | - | - |
| 1777696429 | 5.56° C | 74% | 1020.6 hPa | 0 mm | - | - | - |
| 1777696129 | 5.56° C | 73% | 1020.5 hPa | 0 mm | - | - | - |
| 1777695829 | 5.56° C | 73% | 1020.5 hPa | 0 mm | - | - | - |
| 1777695529 | 5.56° C | 73% | 1020.4 hPa | 0 mm | - | - | - |
| 1777695229 | 5.56° C | 73% | 1020.5 hPa | 0 mm | - | - | - |
| 1777694929 | 5.56° C | 73% | 1020.5 hPa | 0 mm | - | - | - |
| 1777694629 | 5.56° C | 73% | 1020.3 hPa | 0 mm | - | - | - |
| 1777694329 | 5.56° C | 73% | 1020.3 hPa | 0 mm | - | - | - |
| 1777694029 | 5.56° C | 73% | 1020.3 hPa | 0 mm | - | - | - |
* Rain latest hour (hover to see other rain measurements)
** Current wind speed in m/s (hover to see current wind gust speed)